Retour au catalogue

FENGYUN 1C DEB

ActifPO
NORAD 36160·DEBRIS·🇨🇳 China

Lancé May 10, 1999 depuis Taiyuan Satellite Launch Center

Loading…

Prochains Passages (prochaines 24 heures)

TLE

FraisSource: Space-Track

Époque: Sep 14, 2026, 06:23 UTC

1 36160U 99025DSH 26257.26657492  .00000266  00000-0  14781-3 0  9992
2 36160  98.1408  79.1727 0135067  74.1673 287.4344 14.13468800639444

Suivez FENGYUN 1C DEB en temps réel avec AllMySat

Download on the App Store